Home   Weather   Tulkarm   Past weeks

Flag for Palestinian Territories Past Weather in Tulkarm, West Bank, Palestinian Territories — Yesterday and Last 2 Weeks

Now
79 °F

Passing clouds.


Feels Like: 81 °F
Forecast: 73 / 86 °F
Wind: 10 mph from North

Location: Dov Airport

Current Time: Sep 28, 2016 at 8:14:27 PM

Latest Report: Sep 28, 2016 at 6:50 PM


Visibility: N/A

Pressure: 30.04 "Hg

Humidity: 61%

Dew Point: 64 °F

Location of TulkarmLocation

Past Weather in Tulkarm — Graph

°F

Tulkarm Temperature Yesterday

Maximum temperature yesterday: 82 °F (at 11:50 AM)
Minimum temperature yesterday: 72 °F (at 5:50 AM)
Average temperature yesterday: 79 °F

High & Low Weather Summary for the Past Weeks

 TemperatureHumidityPressure
High88 °F (Sep 15, 1:50 PM)89% (Sep 21, 5:00 AM)30.07 "Hg (Sep 21, 5:00 AM)
Low72 °F (Sep 25, 5:50 AM)22% (Sep 25, 9:50 AM)29.74 "Hg (Sep 25, 2:50 PM)
Average81 °F62%29.89 "Hg
* Reported Sep 13 6:50 PM — Sep 28 6:50 PM, Tulkarm, Weather by CustomWeather, © 2016

Note: Actual official high and low records may vary slightly from our data, if they occured in-between our weather recording intervals... More about our weather records

Advertising

Tulkarm Weather History for the Previous 24 Hours

Scroll right to see more
 ConditionsComfort  
Time TempWeatherWind HumidityBarometerVisibility
6:50 PM
Wed, Sep 28
79 °FPassing clouds.10 mph61%30.04 "HgN/A
5:50 PM79 °FScattered clouds.12 mph61%30.04 "HgN/A
4:50 PM81 °FPassing clouds.12 mph58%30.04 "HgN/A
3:50 PM81 °FScattered clouds.13 mph58%30.04 "HgN/A
2:50 PM81 °FScattered clouds.14 mph62%30.04 "HgN/A
1:50 PM82 °FScattered clouds.14 mph58%30.04 "HgN/A
12:50 PM82 °FScattered clouds.10 mph58%30.04 "HgN/A
11:50 AM82 °FPassing clouds.7 mph55%30.07 "HgN/A
10:50 AM79 °FScattered clouds.3 mph58%30.07 "HgN/A
9:50 AM79 °FPartly sunny.7 mph58%30.07 "HgN/A
8:50 AM79 °FPassing clouds.5 mph54%30.04 "HgN/A
7:50 AM75 °FSunny.6 mph61%30.04 "Hg10 mi
6:50 AM73 °FSunny.3 mph65%30.01 "Hg10 mi
5:50 AM73 °FPassing clouds.5 mph65%30.01 "HgN/A
4:50 AM73 °FPassing clouds.3 mph65%30.01 "HgN/A
10:50 PM
Tue, Sep 27
77 °FPassing clouds.5 mph61%30.01 "HgN/A
9:50 PM77 °FPassing clouds.5 mph61%30.01 "HgN/A
8:50 PM79 °FPassing clouds.6 mph54%30.01 "HgN/A
Weather by CustomWeather, © 2016

See weather overviewHow to use our weather pages